User: anonymous   Login
Location: Unspecified
(0.0000°N, 0.0000°E)
Time: 14:42:59
(UTC+02:00)
Language:

Centaur D-1AR AC-41 - Orbit

View from above orbital plane
View from above orbital plane
View from above satellite
View from above satellite

Ground track
Ground track

The orbit data is extracted from the following two-line orbital elements,

1 10976U 78068B   18114.30799785 -.00000141 +00000-0 +46253-3 0  9995
2 10976 021.5256 094.0922 7169924 090.9333 005.6519 02.22310659320008
Epoch (UTC): 24 April 2018 07:23:31
Eccentricity: 0.7169924
inclination: 21.5256°
perigee height: 640 km
apogee height: 36200 km
right ascension of ascending node: 94.0922°
argument of perigee: 90.9333°
revolutions per day: 2.22310659
mean anomaly at epoch: 5.6519°
orbit number at epoch: 32000

The dashed part of the orbit path shows where the satellite is in the earth's shadow,  

DLR